Simultaneous Nadir Overpasses (SNOs) Predictions

Prediction of SNOs between FY3D and TERRA Satellite Orbit:

Table of predicted SNOs for the next 14.0 days since TLE Epoch: 8/17/2019
Index Date (FY3D) Time (FY3D) Lat,Lon (FY3D) SZA (FY3D ) Date (TERRA) Time (TERRA) Lat,Lon (TERRA) SZA (TERRA ) Distance(km) Time Diff (sec)
1 08/17/2019 11:16:31 -68.82,-170.02 124.71 08/17/2019 11:17:13 -68.80,-170.05 124.73 2.09 42
2 08/17/2019 12:07:15 68.70, -2.56 55.19 08/17/2019 12:06:40 68.70, -2.52 55.19 1.35 35
3 08/20/2019 03:32:57 -68.84, -54.16 123.83 08/20/2019 03:33:40 -68.82, -54.14 123.84 1.67 43
4 08/20/2019 04:23:40 68.67, 113.38 56.02 08/20/2019 04:23:08 68.66, 113.31 56.02 2.75 32
5 08/22/2019 19:49:24 -68.86, 61.70 122.92 08/22/2019 19:50:08 -68.84, 61.76 122.94 3.14 44
6 08/22/2019 20:40:07 68.69,-130.76 56.93 08/22/2019 20:39:36 68.68,-130.79 56.92 1.72 31
7 08/25/2019 12:05:50 -68.83, 177.63 122.04 08/25/2019 12:06:36 -68.85, 177.66 122.02 2.96 46
8 08/25/2019 12:56:34 68.71, -14.91 57.86 08/25/2019 12:56:04 68.69, -14.90 57.84 2.66 30
9 08/25/2019 13:46:57 -67.64, 153.78 123.21 08/25/2019 13:45:50 -67.68, 151.54 123.14 94.73 67
10 08/28/2019 04:22:17 -68.85, -66.51 121.08 08/28/2019 04:23:04 -68.86, -66.45 121.08 2.65 47
11 08/28/2019 05:13:00 68.68, 101.02 58.76 08/28/2019 05:12:32 68.69, 100.99 58.77 1.91 28
12 08/28/2019 06:03:24 -67.66, -90.36 122.26 08/28/2019 06:02:17 -67.75, -92.50 122.15 90.92 67
13 08/30/2019 20:38:42 -68.82, 49.41 120.16 08/30/2019 20:39:32 -68.80, 49.36 120.18 2.65 50
14 08/30/2019 21:29:26 68.70,-143.12 59.74 08/30/2019 21:28:59 68.69,-143.13 59.72 1.54 27
15 08/30/2019 22:19:51 -67.74, 25.43 121.22 08/30/2019 22:18:43 -67.80, 23.44 121.15 83.84 68




NCC Satellite Simultaneous Nadir Overpasses (SNOs) Prediction Service
